Location: ???? ???? ?????
(31.2680°N, 31.7283°E)
Time: 19:30:21
(UTC+00:00)

Cosmos 1709 Rocket - Pass Details

Date: 13 July 2020
Orbit: 948 x 1001 km, 82.9° (Epoch: 05 August)

Event Time Altitude Azimuth Distance (km) Brightness Sun altitude
Rises 18:25:22 0° 193° (SSW) 3,671 6.8 -16.4°
Reaches altitude 10° 18:27:53 10° 197° (SSW) 2,734 6.1 -16.8°
Maximum altitude 18:34:05 62° 277° (W) 1,107 4.5 -17.8°
Drops below altitude 10° 18:40:24 10° 358° (N) 2,773 7.0 -18.8°
Sets 18:42:59 0° 2° (N) 3,728 7.6 -19.2°
